ゲーレルス第1彗星

90P/Gehrels 1 (2002)

English version
Home page
Updated on September 29, 2004

---------------------------------------------------------------------

・ プロフィール

・ 軌道要素

Epoch 2002 June 15.0 TT = JDT 2452440.5
T 2002 June 22.9685 TT                                  MPCN
q   2.965662             (2000.0)            P               Q
n   0.0664298      Peri.   28.1935      +0.7479665      -0.6625857
a   6.038016       Node    13.5258      +0.5732536      +0.6152117
e   0.508835       Incl.    9.6160      +0.3345541      +0.4271940
P  14.8
From 52 observations 1972-2001, mean residual 0".9.

・ 星図

・ 光度変化

        m1 = 4.5 + 5 logΔ + 22 log r(t - 130)

---------------------------------------------------------------------

軌道要素はMPCのEphemerides and Orbital Elementsに掲載されたものです。
星図は StellaNavigator Ver.2.0 for Windows (アストロアーツ 編著 / アスキー出版局刊) で作成したものです。
光度グラフはComet for Windowsで作成したものです。

---------------------------------------------------------------------

Copyright(C) Seiichi Yoshida (comet@aerith.net). All rights reserved.